Regional Weather Roundup
Issued by NWS

Home | Current Version | Previous Version | Text Only | Print | Product List | Glossary Off
Versions: 1 2 3 4 5 6 7 8 9 10 11 12 13 14 15 16 17 18 19 20 21 22 23 24 25 26 27

000
ASUS45 KTFX 220010
RWRMT
MONTANA REGIONAL WEATHER ROUNDUP
NATIONAL WEATHER SERVICE GREAT FALLS MT
500 PM MST TUE FEB 21 2017

NOTE: "FAIR" INDICATES FEW OR NO CLOUDS BELOW 12000 FEET WITH NO
SIGNIFICANT WEATHER AND/OR OBSTRUCTIONS TO VISIBILITY.

MTZ001>007-043-220100-
WEST OF THE DIVIDE

CITY           SKY/WX    TMP DP  RH WIND       PRES   REMARKS
KALISPELL      LGT SNOW  33  32  96 E5        29.69R FOG
MISSOULA       LGT RAIN  37  36  96 W7        29.72R FOG     WCI  32
BUTTE          CLOUDY    42  18  37 W13G20    29.72R
MULLAN PASS    SNOW      26  26 100 NW9G22    29.67R VSB 1/4 WCI  17
ANACONDA         N/A     43  19  39 S22G30    29.68R
DEER LODGE       N/A     43  25  49 SE13G18   29.71R
EUREKA           N/A     34  32  93 CALM      29.73R
HAMILTON         N/A     50  21  32 S12       29.69R
LIBBY            N/A     36  34  93 CALM      29.73R
PLAINS           N/A     36  31  82 CALM      29.74R
RONAN            N/A     35  33  92 E2        29.75R
$$

MTZ008-052>055-220100-
SOUTHWEST MONTANA

CITY           SKY/WX    TMP DP  RH WIND       PRES   REMARKS
BOZEMAN        PTCLDY    48  24  39 SW18G31   29.69R
DILLON         CLOUDY    38  23  55 SW20      29.76S WCI  28
W YELLOWSTONE  CLOUDY    32  27  80 SW16      29.83R WCI  21
ENNIS          CLEAR     41  25  52 VRB3      29.82R
THREE FORKS      N/A     50  50 100 W13       29.69F
TWIN BRIDGES     N/A     41  21  44 S13       29.75F
$$

MTZ009-010-012-014-046-048-049-054-220100-
EAST SLOPES AND CENTRAL MONTANA

CITY           SKY/WX    TMP DP  RH WIND       PRES   REMARKS
CUT BANK       LGT SNOW  33  32  96 NE5       29.65S FOG
GREAT FALLS    CLOUDY    40  36  86 CALM      29.63S
MALMSTROM AFB  CLOUDY    37  37 100 NE9       29.64S FOG     WCI  31
HELENA         CLOUDY    50  18  28 SW15G23   29.61R
AUGUSTA        MOCLDY    37  35  93 W9        29.62R WCI  30
BOWMANS CRNR   LGT RAIN  38  34  84 N10       29.62R WCI  31
CHOTEAU          N/A     36  34  93 E10       29.65S WCI  28
CONRAD           N/A     34  34 100 N2        29.70S
POWER          CLOUDY    36  35  96 NE8       29.63S WCI  30
RAYNESFORD     MOCLDY    42  35  75 W8        29.62F
ULM            MOCLDY    43  35  73 MISG      29.62F
$$

MTZ011-013-016-021-045-047-050-051-220100-
NORTH CENTRAL MONTANA

CITY           SKY/WX    TMP DP  RH WIND       PRES   REMARKS
HAVRE          CLOUDY    37  36  96 NW3       29.69R
LEWISTOWN      CLOUDY    41  34  76 W6        29.63F
N BAR RANCH      N/A     43  30  61 NW15      29.65S
CHINOOK          N/A     37  37 100 NW3       29.69S
FORT BENTON      N/A     37  36  93 MISG      29.66F
JUDITH GAP       N/A     48  22  36 W10       29.63R
STANFORD         N/A     42  36  79 NW13      29.62R
WINIFRED         N/A     42  38  84 W5        29.62F
$$

MTZ017>020-022>027-061-062-220100-
NORTHEAST MONTANA

CITY           SKY/WX    TMP DP  RH WIND       PRES   REMARKS
GLASGOW        CLOUDY    40  37  89 NW12      29.66F
JORDAN           N/A     46  38  73 N13       29.65R
SIDNEY         LGT RAIN  43  38  82 NW14      29.67R
WOLF POINT     LGT RAIN  41  36  82 NW5       29.68R
PLENTYWOOD       N/A     36  34  93 N7        29.68R WCI  30
POPLAR           N/A     39  36  87 W6        29.68S
SCOBEY           N/A     34  27  76 W3        29.69R
$$

MTZ028>42-056>058-220100-
SOUTHCENTRAL AND SOUTHEAST MONTANA

CITY           SKY/WX    TMP DP  RH WIND       PRES   REMARKS
BAKER          LGT RAIN  46  38  73 NW28G60   29.69R
BILLINGS       PTCLDY    54  22  28 W22       29.63R
LIVINGSTON     PTCLDY    49  20  31 W31G40    29.64R
MILES CITY     LGT RAIN  50  40  68 NE5       29.61F
BIG TIMBER     CLEAR     48  19  32 W26G37    29.65R
FORSYTH          N/A     55  36  47 SW3       29.61F
LAUREL           N/A     55  23  29 SW9       29.67R
$$

REGIONAL REPORTS...DAKOTAS

CITY           SKY/WX    TMP DP  RH WIND       PRES   REMARKS
WILLISTON      LGT RAIN  42  32  67 W16G24    29.67R
MINOT          CLOUDY    44  36  73 NW6       29.63S
DICKINSON      CLOUDY    46  33  60 NE7       29.63R
BEACH            N/A    N/A N/A N/A MISG        N/A
CROSBY           N/A     34  34 100 NW8       29.69R WCI  27
TIOGA          CLOUDY    37  37 100 W5        29.66R
WATFORD CITY   LGT RAIN  37  37 100 CALM      29.65S
BISMARCK       PTCLDY    46  37  71 NE6       29.65S
GRAND FORKS    FOG       35  31  85 NW5       29.68R VSB 1/4
FARGO          CLOUDY    44  40  85 SW3       29.67R
BUFFALO SD       N/A     63  23  21 W37G44    29.55S
RAPID CITY     CLEAR     66  26  22 W29G37    29.66S
$$

REGIONAL REPORTS...WYOMING/IDAHO/WASHINGTON

CITY           SKY/WX    TMP DP  RH WIND       PRES   REMARKS
GILLETTE       CLOUDY    54  33  45 W21G37    29.73R
SHERIDAN       MOCLDY    52  30  43 SW23      29.72F
BUFFALO WY     MOCLDY    50  32  50 SW12      29.75S
CODY           CLOUDY    42  27  55 SW13G21   29.81R
YELLOWSTONE LA   N/A     27  25  92 VRB6      29.85R WCI  20
IDAHO FALLS    CLOUDY    36  33  89 S18G25    29.92F WCI  26
SALMON         CLOUDY    43  27  52 SW14G25   29.79R
BOISE          PTSUNNY   52  27  38 W23G35    29.94R
SPOKANE        FLURRIES  34  33  96 SW10      29.82R WCI  26
$$

REGIONAL REPORTS...ALBERTA

CITY           SKY/WX    TMP DP  RH WIND       PRES   REMARKS
EDMONTON       PTCLDY    32  27  80 N8        29.72R WCI  25
CALGARY        CLOUDY    32  25  74 S5        29.66R HAZE
LETHBRIDGE     CLOUDY    34  32  93 NW6       29.68R WCI  29
MEDICINE HAT   CLOUDY    37  32  81 N8        29.70R WCI  31
WATERTON GATE    N/A     32  30  93 NE5         N/A
CARDSTON         N/A     32  30  93 N1          N/A
MILK RIVER       N/A     34  32  93 W2          N/A
$$

REGIONAL REPORTS...SASKATCHEWAN

CITY           SKY/WX    TMP DP  RH WIND       PRES   REMARKS
SWIFT CURRENT  CLOUDY    30  28  93 N5        29.71R
REGINA         CLOUDY    34  30  86 N8        29.71R WCI  27
SASKATOON      CLOUDY    34  25  69 NW2       29.76R
CYPRESS HILLS    N/A     30  27  86 E2          N/A
VAL MARIE        N/A     34  30  86 NE10        N/A  WCI  26
ROCKGLEN         N/A     34  30  86 N7          N/A  WCI  28
ASSINIBOIA       N/A     36  30  80 SW5         N/A
$$




USA.gov is the U.S. government's official web portal to all federal, state and local government web resources and services.